Winter Haven, FL

4:22 PM EDT on June 22, 2018 (GMT -0400)
Winter Haven's-Gilbert

Weather History for KGIF - March, 2018

Change the Weather History Date:

Wednesday, March 14, 2018

  Actual Average Record
Temperature  
Mean Temperature 58 °F -  
Max Temperature 70 °F 79 °F 89 °F (2015)
Min Temperature 46 °F 55 °F 35 °F (1993)
Degree Days  
Heating Degree Days 8    
Growing Degree Days 8 (Base 50)    
Moisture  
Dew Point 35 °F    
Average Humidity 52    
Maximum Humidity 86    
Minimum Humidity 15    
Precipitation  
Precipitation 0.00 in - - ()
Sea Level Pressure  
Sea Level Pressure 30.11 in    
Wind  
Wind Speed 8 mph (NW)    
Max Wind Speed 14 mph    
Max Gust Speed 23 mph    
Visibility 10 miles    
Events      
Averages and records for this station are not official NWS values.
T = Trace of Precipitation, MM = Missing Value Source: NWS Daily Summary

Daily Weather History Graph

Daily Weather History Graph

Search for Another Location

Airport or City:

Astronomy

Mar. 14, 2018 Rise Set
Actual Time 7:37 AM EDT 7:35 PM EDT
Civil Twilight 7:14 AM EDT 7:58 PM EDT
Nautical Twilight 6:47 AM EDT 8:25 PM EDT
Astronomical Twilight 6:19 AM EDT 8:53 PM EDT
Moon 5:54 AM EDT (3/14) 5:09 PM EDT (3/14)
Length of Visible Light 12h 44m
Length of Day
11h 57m
Waning Crescent, 8% of the Moon is Illuminated
Mar 14
Waning Crescent
Mar 17
New
Mar 24
First Quarter
Mar 31
Full
Apr 8
Last Quarter

Hourly Weather History & Observations

Time (EDT) Temp. Dew Point Humidity Pressure Visibility Wind Dir Wind Speed Gust Speed Precip Events Conditions
12:53 AM 50.0 °F 42.1 °F 74% 30.11 in 10.0 mi NNW 6.9 mph - N/A   Clear
1:53 AM 48.9 °F 42.1 °F 77% 30.10 in 10.0 mi WNW 3.5 mph - N/A   Clear
2:53 AM 46.9 °F 42.1 °F 83% 30.08 in 10.0 mi NW 4.6 mph - N/A   Clear
3:53 AM 46.9 °F 42.1 °F 83% 30.07 in 10.0 mi NW 4.6 mph - N/A   Clear
4:53 AM 48.0 °F 43.0 °F 83% 30.08 in 10.0 mi NNW 4.6 mph - N/A   Clear
5:53 AM 48.0 °F 43.0 °F 83% 30.09 in 10.0 mi NNW 6.9 mph - N/A   Clear
6:53 AM 48.0 °F 44.1 °F 86% 30.10 in 10.0 mi NNW 6.9 mph - N/A   Clear
7:53 AM 48.9 °F 44.1 °F 83% 30.12 in 10.0 mi NNW 5.8 mph - N/A   Clear
8:53 AM 51.1 °F 39.9 °F 66% 30.14 in 10.0 mi NNW 10.4 mph - N/A   Clear
9:53 AM 55.0 °F 37.0 °F 51% 30.17 in 10.0 mi North 12.7 mph - N/A   Clear
10:53 AM 59.0 °F 35.1 °F 41% 30.16 in 10.0 mi North 12.7 mph - N/A   Clear
11:53 AM 62.1 °F 34.0 °F 35% 30.16 in 10.0 mi North 12.7 mph - N/A   Clear
12:53 PM 64.9 °F 32.0 °F 29% 30.14 in 10.0 mi WNW 12.7 mph - N/A   Clear
1:53 PM 66.0 °F 30.9 °F 27% 30.12 in 10.0 mi WNW 11.5 mph 18.4 mph N/A   Clear
2:53 PM 69.1 °F 28.0 °F 22% 30.09 in 10.0 mi WNW 12.7 mph 20.7 mph N/A   Clear
3:53 PM 69.1 °F 21.9 °F 17% 30.07 in 10.0 mi NW 13.8 mph 21.9 mph N/A   Clear
4:53 PM 68.0 °F 19.0 °F 15% 30.07 in 10.0 mi WNW 13.8 mph 23.0 mph N/A   Clear
5:53 PM 68.0 °F 18.0 °F 15% 30.07 in 10.0 mi WNW 10.4 mph - N/A   Clear
6:53 PM 64.9 °F 21.0 °F 19% 30.08 in 10.0 mi West 11.5 mph - N/A   Clear
7:53 PM 60.1 °F 28.9 °F 31% 30.11 in 10.0 mi WNW 8.1 mph - N/A   Clear
8:53 PM 55.9 °F 35.1 °F 45% 30.13 in 10.0 mi NW 11.5 mph - N/A   Clear
9:53 PM 54.0 °F 39.0 °F 57% 30.15 in 10.0 mi WNW 9.2 mph - N/A   Clear
10:53 PM 52.0 °F 39.0 °F 61% 30.15 in 10.0 mi WNW 6.9 mph - N/A   Clear
11:53 PM 51.1 °F 39.9 °F 66% 30.15 in 10.0 mi NW 8.1 mph - N/A   Clear